McCook, NE

5:38 PM CST on February 20, 2017 (GMT -0600)
McCook Municipal

Weather History for KMCK - September, 2013

Change the Weather History Date:

Tuesday, September 17, 2013

  Actual Average Record
Temperature  
Mean Temperature 72 °F 64 °F  
Max Temperature 87 °F 79 °F 100 °F (1927)
Min Temperature 57 °F 49 °F 32 °F (1981)
Cooling Degree Days 7    
Growing Degree Days 22 (Base 50)    
Moisture  
Dew Point 61 °F    
Average Humidity 81    
Maximum Humidity 100    
Minimum Humidity 44    
Precipitation  
Precipitation 0.01 in 0.05 in 0.69 in (1975)
Month to date precipitation 1.04 0.83  
Year to date precipitation 10.21 18.54  
Sea Level Pressure  
Sea Level Pressure 29.94 in    
Wind  
Wind Speed 8 mph (SSE)    
Max Wind Speed 16 mph    
Max Gust Speed 22 mph    
Visibility 6 miles    
Events      
T = Trace of Precipitation, MM = Missing Value Source: NWS Daily Summary

Daily Weather History Graph

Daily Weather History Graph

Search for Another Location

Airport or City:

Trip Planner

Search our weather history database for the weather conditions in past years. The results will help you decide how hot, cold, wet, or windy it might be!

Date:

Astronomy

Sep. 17, 2013 Rise Set
Actual Time 7:25 AM CDT 7:47 PM CDT
Civil Twilight 6:58 AM CDT 8:14 PM CDT
Nautical Twilight 6:26 AM CDT 8:46 PM CDT
Astronomical Twilight 5:53 AM CDT 9:19 PM CDT
Moon 6:35 PM CDT (9/17) 5:21 AM CDT (9/17)
Length of Visible Light 13h 16m
Length of Day
12h 21m
Waxing Gibbous, 96% of the Moon is Illuminated
Sep 17
Waxing Gibbous
Sep 19
Full
Sep 26
Last Quarter
Oct 4
New
Oct 11
First Quarter

Hourly Weather History & Observations

Time (CDT) Temp. Heat Index Dew Point Humidity Pressure Visibility Wind Dir Wind Speed Gust Speed Precip Events Conditions
12:53 AM 57.0 °F - 55.0 °F 93% 30.14 in 10.0 mi South 6.9 mph - N/A   Overcast
1:53 AM 57.0 °F - 55.0 °F 93% 30.12 in 10.0 mi SSE 4.6 mph - N/A   Overcast
2:53 AM 57.9 °F - 55.0 °F 90% 30.09 in 10.0 mi East 3.5 mph - N/A   Overcast
3:53 AM 57.9 °F - 55.9 °F 93% 30.07 in 9.0 mi ESE 4.6 mph - 0.00 in   Overcast
4:46 AM 59.0 °F - 57.2 °F 94% 30.07 in 9.0 mi SSE 5.8 mph - N/A   Overcast
4:53 AM 59.0 °F - 57.0 °F 93% 30.05 in 9.0 mi SSE 5.8 mph - N/A   Overcast
5:53 AM 59.0 °F - 57.0 °F 93% 30.04 in 4.0 mi SE 5.8 mph - N/A   Overcast
6:16 AM 59.0 °F - 57.2 °F 94% 30.05 in 2.5 mi SE 4.6 mph - N/A   Overcast
6:44 AM 57.2 °F - 57.2 °F 100% 30.04 in 2.0 mi ESE 8.1 mph - N/A   Overcast
6:53 AM 57.9 °F - 57.0 °F 97% 30.02 in 2.0 mi ESE 8.1 mph - N/A   Overcast
7:10 AM 59.0 °F - 57.2 °F 94% 30.04 in 1.8 mi SE 8.1 mph - N/A   Overcast
7:53 AM 59.0 °F - 57.9 °F 96% 30.01 in 1.0 mi SE 10.4 mph - N/A   Overcast
8:01 AM 59.0 °F - 57.2 °F 94% 30.04 in 0.8 mi SE 11.5 mph - N/A   Overcast
8:53 AM 60.1 °F - 59.0 °F 96% 30.00 in 1.0 mi SE 9.2 mph - 0.01 in   Overcast
9:53 AM 61.0 °F - 60.1 °F 97% 29.99 in 1.0 mi SSE 9.2 mph - N/A   Overcast
10:53 AM 63.0 °F - 62.1 °F 97% 29.97 in 1.2 mi SSE 9.2 mph - N/A   Overcast
11:28 AM 64.4 °F - 62.6 °F 94% 29.99 in 2.0 mi SSE 8.1 mph - N/A   Overcast
11:50 AM 66.2 °F - 64.4 °F 94% 29.98 in 3.0 mi SSE 9.2 mph - N/A   Overcast
11:53 AM 66.0 °F - 64.0 °F 93% 29.95 in 3.0 mi SSE 9.2 mph - N/A   Overcast
11:57 AM 66.2 °F - 64.4 °F 94% 29.98 in 3.0 mi SSE 9.2 mph - N/A   Overcast
12:29 PM 69.8 °F - 64.4 °F 83% 29.97 in 4.0 mi South 11.5 mph - N/A   Haze
12:40 PM 69.8 °F - 64.4 °F 83% 29.96 in 5.0 mi South 11.5 mph - N/A   Haze
12:53 PM 71.1 °F - 64.0 °F 78% 29.91 in 6.0 mi South 10.4 mph - N/A   Haze
1:53 PM 78.1 °F - 64.0 °F 62% 29.87 in 10.0 mi South 12.7 mph 18.4 mph N/A   Partly Cloudy
2:53 PM 82.0 °F 83.4 °F 64.0 °F 54% 29.83 in 10.0 mi South 12.7 mph 18.4 mph N/A   Clear
3:53 PM 84.9 °F 86.1 °F 64.0 °F 49% 29.79 in 10.0 mi South 16.1 mph 21.9 mph N/A   Clear
4:53 PM 87.1 °F 88.3 °F 64.0 °F 46% 29.77 in 10.0 mi SSW 15.0 mph 21.9 mph N/A   Clear
5:53 PM 87.1 °F 87.8 °F 63.0 °F 44% 29.75 in 10.0 mi South 13.8 mph - N/A   Clear
6:53 PM 84.9 °F 85.4 °F 62.1 °F 46% 29.75 in 10.0 mi South 9.2 mph - N/A   Clear
7:53 PM 81.0 °F 81.9 °F 62.1 °F 52% 29.75 in 10.0 mi SE 4.6 mph - N/A   Clear
8:53 PM 75.0 °F - 63.0 °F 66% 29.76 in 10.0 mi SE 6.9 mph - N/A   Clear
9:53 PM 73.0 °F - 64.0 °F 73% 29.77 in 10.0 mi SSE 4.6 mph - N/A   Clear
10:53 PM 73.0 °F - 63.0 °F 71% 29.77 in 10.0 mi South 8.1 mph - N/A   Clear
11:53 PM 72.0 °F - 63.0 °F 73% 29.76 in 10.0 mi South 11.5 mph - N/A   Clear